Location: Alafon
(8.4500°N, 4.2333°E)
Time: 16:05:35
(UTC+00:00)

Transit 2A - Pass Details

Date: 06 August 2021
Orbit: 595 x 964 km, 66.7° (Epoch: 18 September)

Event Time Altitude Azimuth Distance (km) Brightness Sun altitude
Rises 14:39:14 0° 342° (NNW) 3,490 9.7 47.7°
Reaches altitude 10° 14:41:41 10° 344° (NNW) 2,591 9.2 47.2°
Maximum altitude 14:47:48 79° 70° (ENE) 967 7.2 45.7°
Drops below altitude 10° 14:54:10 10° 156° (SSE) 2,693 8.6 44.2°
Sets 14:56:44 0° 158° (SSE) 3,635 9.2 43.6°
